Location: Katowice
(50.2611°N, 19.0242°E)
Time: 23:05:49
(UTC+02:00)

A-11 Canister half - Pass Details

Date: 28 July 2019
Orbit: 1526 x 1683 km, 47.3° (Epoch: 18 August)

Event Time Altitude Azimuth Distance (km) Brightness Sun altitude
Rises 17:34:19 0° 189° (S) 4,922 11.8 26.5°
Reaches altitude 10° 17:38:25 10° 176° (S) 3,936 11.2 25.9°
Maximum altitude 17:45:30 22° 130° (SE) 3,070 10.3 24.8°
Drops below altitude 10° 17:52:31 10° 85° (E) 3,904 10.6 23.6°
Sets 17:56:32 0° 72° (ENE) 4,872 11.1 23.0°
